Regional Weather Roundup
Issued by NWS Sioux Falls, SD

Home | Current Version | Previous Version | Text Only | Print | Product List | Glossary Off
Versions: 1 2 3 4 5 6 7 8 9 10 11 12 13 14 15 16 17 18 19 20 21 22 23 24 25 26 27 28 29 30 31 32 33 34 35 36 37 38 39 40 41 42 43 44 45 46 47 48 49 50

911
ASUS43 KFSD 301510
RWRFSD

WEATHER ROUNDUP FOR SE SOUTH DAKOTA/SW MINNESOTA/NW IOWA
NATIONAL WEATHER SERVICE SIOUX FALLS SD
1000 AM CDT SAT APR 30 2016

NOTE: "FAIR" INDICATES FEW OR NO CLOUDS BELOW 12,000 FEET WITH NO
SIGNIFICANT WEATHER AND OR OBSTRUCTIONS TO VISIBILITY.


SDZ038>040-050-052>070-301600-
SOUTHEAST SOUTH DAKOTA

CITY           SKY/WX    TMP DP  RH WIND       PRES   REMARKS
BROOKINGS      CLOUDY    41  34  76 NE16G23   29.97F
CHAMBERLAIN    CLOUDY    46  41  84 NE12G17   29.98S
HURON          CLOUDY    45  36  70 NE20G25   30.01F
MADISON        FAIR      39  39 100 NE24G32   29.95F
MITCHELL       CLOUDY    46  41  82 NE15      29.97F
SIOUX FALLS    LGT RAIN  43  38  82 NE20G26   29.94R
WINNER         CLOUDY    44  38  79 NE16G23   29.96S
YANKTON        CLOUDY    43  39  87 NE15G24   29.87F
$$

MNZ071-072-080-081-089-090-097-098-301600-
SOUTHWEST MINNESOTA

CITY           SKY/WX    TMP DP  RH WIND       PRES   REMARKS
FAIRMONT       CLOUDY    45  32  61 E20       29.94F
JACKSON        DRIZZLE   43  37  81 NE22G28   29.94R
LUVERNE        LGT RAIN  41  36  81 NE15G23   29.92R
MARSHALL       PTSUNNY   43  36  76 NE18      30.02S
MONTEVIDEO     CLOUDY    45  37  76 E18       30.08F
REDWOOD FALLS  CLOUDY    46  35  65 NE13G21   30.03S
TRACY          PTSUNNY   43  38  82 NE15      30.00F
WINDOM         CLOUDY    45  37  76 NE17G24   29.96S
WORTHINGTON    LGT RAIN  42  39  89 NE26G33   29.91F
$$

IAZ001>003-012>014-020>022-031-032-NEZ013-014-SDZ071-301600-
NORTHWEST IOWA

CITY           SKY/WX    TMP DP  RH WIND       PRES   REMARKS
CHEROKEE       RAIN      42  42  99 NE18G29   29.84F
DENISON        RAIN      43  43 100 E22G30    29.74F
ESTHERVILLE    LGT RAIN  42  40  92 E23G30    29.91F
LE MARS        RAIN      43  41  93 NE21G31   29.83S
ORANGE CITY    RAIN      43  39  87 E15G23    29.86S
SHELDON        RAIN      43  41  93 E21G30    29.88R
SIOUX CITY     HVY RAIN  45  41  86 E15       29.82R FOG
SPENCER        RAIN      42  39  89 E20G28    29.91R FOG
STORM LAKE     MIX PCPN  41  41 100 NE30G36   29.82F
$$

ABBREVIATIONS USED IN REMARKS
   TC - TEMPERATURE IN CELSIUS
  WCI - WIND CHILL INDEX
   HX - HEAT INDEX
  VSB - VISIBILITY





USA.gov is the U.S. government's official web portal to all federal, state and local government web resources and services.